Location: Alma
(38.7220°N, 88.9090°W)
Time: 00:15:28
(UTC-06:00)

Vanguard 2 Rocket - All Passes

Search period start: 15 November 2019 00:00
Search period end: 25 November 2019 00:00
Orbit: 554 x 3326 km, 32.9° (Epoch: 13 November)

Date Brightness Start Highest point End Pass type
(mag) Time Alt. Az. Time Alt. Az. Time Alt. Az.
15 Nov - 00:21:16 10° SSE 00:22:58 12° SE 00:24:52 10° ESE night (unlit)
15 Nov - 02:30:05 10° SW 02:34:48 44° SSE 02:42:22 10° E visible
15 Nov - 04:41:33 10° W 04:48:04 57° S 04:59:42 10° ESE visible
15 Nov - 06:54:03 10° W 07:02:39 41° SSW 07:16:45 10° SE daylight
15 Nov - 09:09:34 10° WSW 09:18:15 20° SSW 09:29:29 10° S daylight
16 Nov - 01:31:41 10° SW 01:35:38 31° SSE 01:41:14 10° E visible
16 Nov - 03:42:46 10° WSW 03:48:18 56° S 03:57:53 10° ESE visible
16 Nov - 05:54:48 10° W 06:02:16 46° SSW 06:15:05 10° SE visible
16 Nov - 08:08:46 10° WSW 08:17:23 25° SSW 08:29:38 10° SSE daylight
17 Nov - 00:33:37 10° SSW 00:36:38 20° SSE 00:40:18 10° ESE night (unlit)
17 Nov - 02:44:05 10° WSW 02:48:48 50° S 02:56:28 10° E visible
17 Nov - 04:55:48 10° W 05:02:11 49° S 05:13:20 10° ESE visible
17 Nov - 07:08:47 10° W 07:16:45 30° SSW 07:28:59 10° SSE daylight
17 Nov - 09:28:14 10° SW 09:32:18 12° SW 09:36:51 10° SSW daylight
17 Nov - 23:36:36 10° SSE 23:37:40 11° SSE 23:38:46 10° SE night (unlit)
18 Nov - 01:45:29 10° SW 01:49:34 40° SSE 01:55:28 10° E visible
18 Nov - 03:56:58 10° W 04:02:25 51° S 04:11:44 10° ESE visible
18 Nov - 06:09:19 10° W 06:16:23 35° SSW 06:27:52 10° SE visible
18 Nov - 08:25:05 10° WSW 08:31:29 16° SSW 08:39:36 10° S daylight
19 Nov - 00:46:59 10° SW 00:50:29 28° SSE 00:54:53 10° E night (unlit)
19 Nov - 02:58:13 10° WSW 03:02:54 50° S 03:10:28 10° ESE visible
19 Nov - 05:10:11 10° W 05:16:20 39° SSW 05:26:35 10° SE visible
19 Nov - 07:24:13 10° WSW 07:30:55 20° SSW 07:40:12 10° SSE daylight
19 Nov - 23:48:41 10° SSW 23:51:28 18° SSE 23:54:29 10° ESE night (unlit)
20 Nov - 01:59:30 10° WSW 02:03:36 44° S 02:09:36 10° ESE visible
20 Nov - 04:11:15 10° W 04:16:33 42° S 04:25:20 10° ESE visible
20 Nov - 06:24:16 10° WSW 06:30:35 24° SSW 06:39:56 10° SSE daylight
20 Nov - 22:51:00 10° S 22:52:24 11° SSE 22:53:46 10° SE night (unlit)
21 Nov - 01:00:48 10° SW 01:04:28 36° SSE 01:09:09 10° ESE night (unlit)
21 Nov - 03:12:26 10° WSW 03:17:02 44° S 03:24:18 10° ESE visible
21 Nov - 05:24:50 10° WSW 05:30:31 28° SSW 05:39:18 10° SE visible
21 Nov - 07:41:54 10° SW 07:45:09 12° SSW 07:48:51 10° SSW daylight
22 Nov - 00:02:03 10° SW 00:05:25 27° SSE 00:09:06 10° ESE night (unlit)
22 Nov - 02:13:39 10° WSW 02:17:43 44° S 02:23:36 10° ESE visible
22 Nov - 04:25:43 10° WSW 04:30:44 31° SSW 04:38:33 10° SE visible
22 Nov - 06:40:16 10° WSW 06:44:49 15° SSW 06:50:38 10° S daylight
22 Nov - 23:03:20 10° SSW 23:06:21 19° SSE 23:09:15 10° ESE night (unlit)
23 Nov - 01:14:48 10° WSW 01:18:32 40° S 01:23:18 10° ESE night (unlit)
23 Nov - 03:26:47 10° WSW 03:31:12 35° S 03:37:53 10° SE visible
23 Nov - 05:40:07 10° WSW 05:44:46 18° SSW 05:51:06 10° SSE visible
23 Nov - 22:04:46 10° SSW 22:07:10 14° SSE 22:09:22 10° SE night (unlit)
24 Nov - 00:15:51 10° WSW 00:19:27 34° S 00:23:24 10° ESE night (unlit)
24 Nov - 02:27:53 10° WSW 02:31:51 37° S 02:37:26 10° ESE visible
24 Nov - 04:40:35 10° WSW 04:44:57 21° SSW 04:51:07 10° SSE visible
24 Nov - 21:06:57 10° S 21:07:51 10° SSE 21:08:43 10° SSE night (unlit)
24 Nov - 23:16:44 10° SW 23:20:23 28° SSE 23:23:49 10° ESE night (unlit)
